星链-35153(STARLINK-35153)

导读

STARLINK-35153是美国SpaceX星链星座的成员卫星,于2025年9月18日发射入轨,星链系统是全球低轨卫星互联网星座,该卫星承担全球偏远区域网络覆盖、信号补盲任务,依托低轨道运行优势可降低通信时延,为用户提供宽带互联网接入服务,推进全球无缝网络覆盖建设。

Basic Information
目录编号:
65625
目录名称:
STARLINK-35153
国际标识:
2025-210D
轨道中心:
EARTH
卫星名称:
星链-35153
卫星全名:
星链-35153(STARLINK-35153)
卫星状态:
在轨 (已飞行351 天)
发射日期:
2025-09-18 UTC
国别 :
美国 (US)
星等 :
--
Orbit Information
数据来源 国际轨道数据
星历时间: 2026-09-04T14:36:44+0800
11小时前
查看轨道信息
半长轴: 6840.826km
偏心率: 0.0000944
轨道倾角: 53.157°
近地点辐角 75.354°
升交点赤经 193.297°
平近点角 284.757°
近地点: 462.043km
远地点: 463.335km
周期: 93.847分钟
每日圈数: 15.34405
Detailed Information
固有亮度:
5
最大亮度:
2.5
卫星平台:
Starlink V1.0
覆盖范围:
全球
运营商:
太空探索技术公司
运营商所在国:
美国
制造商(研发单位):
太空探索技术公司
制造商所在国:
美国
使用方式:
暂无
Satellite Introduction
Starlink 计划是 SpaceX 推出的全球卫星互联网项目,通过发射低轨道卫星,为全球尤其是偏远地区提供高速、低延迟的互联网服务。自 2019 年起,Starlink 已部署数千颗卫星,旨在缩小全球数字鸿沟,推动互联网普及。该项目还为军事、航空等行业提供通信支持,带来广泛经济效益。
2D Orbit Map
3D Orbit Map
Orbit Altitude Analysis Chart
Orbit Inclination Analysis Chart
Orbit Comprehensive Analysis Chart
View Comprehensive Chart
Conjunction Data List
Event ID Objects TCA Miss Dist (km) Collision Risk Probability Collision Risk Index (CRI) Action
CDM_260906-221505-017406-562521
2026-09-06T
22:15:07+0000
1.013 km
极远距离
1.13988E-5 中风险 0.56
CDM_260906-082905-246206-562521
2026-09-06T
08:29:17+0000
2.735 km
极远距离
1.298573E-6 低风险 0.37
CDM_260906-204105-017406-562521
2026-09-06T
20:41:19+0000
2.278 km
极远距离
1.050061E-6 低风险 0.35